contact:dominique.lefevre@mio.osupytheas.fr, maurice.libes@osupytheas.fr, didier.mallarino@osupytheas.fr
Project:EMSO http://www.emso-fr.org/EMSO-France
Depth: 2436.0 m
Title:EMSO Ligure Ouest : Data MII capteur CSTAR
DateTime,Latitude,Longitude,Instrument_Serial,Reference_Counts,Signal_Counts,Corrected_Signal_raw_counts,Calculated_Beam_c_inverse_meters,Internal_thermistor_counts
DateTime,Latitude,Longitude,Instrument_Serial,Reference_Counts,Signal_Counts,Corrected_Signal_raw_counts,Calculated_Beam_c_inverse_meters,Internal_thermistor_counts
2019-07-29T00:02:04,42.805,6.029,CST-1368DR,8496,11884,15446,0.044,551
2019-07-29T00:05:06,42.805,6.029,CST-1368DR,8497,11882,15443,0.045,551
2019-07-29T00:08:08,42.805,6.029,CST-1368DR,8497,11883,15444,0.044,551
2019-07-29T00:11:09,42.805,6.029,CST-1368DR,8496,11885,15447,0.044,551
2019-07-29T00:14:11,42.805,6.029,CST-1368DR,8497,11884,15444,0.044,551
2019-07-29T00:17:12,42.805,6.029,CST-1368DR,8497,11884,15445,0.044,551
2019-07-29T00:20:14,42.805,6.029,CST-1368DR,8496,11883,15445,0.044,551
2019-07-29T00:23:16,42.805,6.029,CST-1368DR,8496,11884,15447,0.044,551
2019-07-29T00:26:17,42.805,6.029,CST-1368DR,8496,11885,15447,0.044,551
2019-07-29T00:29:19,42.805,6.029,CST-1368DR,8496,11885,15448,0.043,550
2019-07-29T00:32:21,42.805,6.029,CST-1368DR,8496,11884,15447,0.044,551
2019-07-29T00:35:22,42.805,6.029,CST-1368DR,8496,11884,15447,0.044,551
2019-07-29T00:38:24,42.805,6.029,CST-1368DR,8496,11882,15444,0.044,551
2019-07-29T00:41:26,42.805,6.029,CST-1368DR,8496,11884,15446,0.044,551
2019-07-29T00:44:27,42.805,6.029,CST-1368DR,8496,11882,15444,0.044,551
2019-07-29T00:47:29,42.805,6.029,CST-1368DR,8496,11884,15446,0.044,551
2019-07-29T00:50:30,42.805,6.029,CST-1368DR,8496,11882,15443,0.045,551
2019-07-29T00:53:32,42.805,6.029,CST-1368DR,8496,11884,15447,0.044,551
2019-07-29T00:56:34,42.805,6.029,CST-1368DR,8496,11881,15443,0.045,551
2019-07-29T00:59:35,42.805,6.029,CST-1368DR,8496,11882,15444,0.044,551
2019-07-29T01:02:37,42.805,6.029,CST-1368DR,8496,11884,15447,0.044,551
2019-07-29T01:05:39,42.805,6.029,CST-1368DR,8496,11884,15446,0.044,551
2019-07-29T01:08:40,42.805,6.029,CST-1368DR,8496,11884,15446,0.044,551
2019-07-29T01:11:42,42.805,6.029,CST-1368DR,8496,11884,15446,0.044,551
2019-07-29T01:14:44,42.805,6.029,CST-1368DR,8496,11884,15446,0.044,551
2019-07-29T01:17:45,42.805,6.029,CST-1368DR,8496,11884,15447,0.044,551
2019-07-29T01:20:47,42.805,6.029,CST-1368DR,8496,11884,15447,0.044,551
2019-07-29T01:23:49,42.805,6.029,CST-1368DR,8496,11882,15444,0.044,551
2019-07-29T01:26:50,42.805,6.029,CST-1368DR,8496,11884,15446,0.044,551
2019-07-29T01:29:52,42.805,6.029,CST-1368DR,8496,11882,15444,0.044,550
2019-07-29T01:32:53,42.805,6.029,CST-1368DR,8496,11882,15444,0.044,550
2019-07-29T01:35:55,42.805,6.029,CST-1368DR,8496,11883,15445,0.044,551
2019-07-29T01:38:57,42.805,6.029,CST-1368DR,8496,11883,15445,0.044,551
2019-07-29T01:41:58,42.805,6.029,CST-1368DR,8496,11883,15445,0.044,551
2019-07-29T01:45:00,42.805,6.029,CST-1368DR,8496,11879,15440,0.045,551
2019-07-29T01:48:02,42.805,6.029,CST-1368DR,8496,11880,15441,0.045,551
2019-07-29T01:51:03,42.805,6.029,CST-1368DR,8496,11884,15446,0.044,551
2019-07-29T01:54:05,42.805,6.029,CST-1368DR,8496,11883,15445,0.044,551
2019-07-29T01:57:06,42.805,6.029,CST-1368DR,8496,11881,15443,0.045,551
2019-07-29T02:00:08,42.805,6.029,CST-1368DR,8496,11882,15444,0.044,551
2019-07-29T02:03:10,42.805,6.029,CST-1368DR,8496,11882,15444,0.044,551
2019-07-29T02:06:11,42.805,6.029,CST-1368DR,8496,11884,15446,0.044,551
2019-07-29T02:09:13,42.805,6.029,CST-1368DR,8496,11882,15444,0.044,551
2019-07-29T02:12:15,42.805,6.029,CST-1368DR,8496,11882,15444,0.044,551
2019-07-29T02:15:16,42.805,6.029,CST-1368DR,8496,11883,15446,0.044,551
2019-07-29T02:18:18,42.805,6.029,CST-1368DR,8495,11883,15447,0.044,550
2019-07-29T02:21:19,42.805,6.029,CST-1368DR,8495,11882,15446,0.044,551
2019-07-29T02:24:21,42.805,6.029,CST-1368DR,8495,11881,15444,0.044,551
2019-07-29T02:27:24,42.805,6.029,CST-1368DR,8495,11882,15445,0.044,551
2019-07-29T02:30:25,42.805,6.029,CST-1368DR,8495,11883,15446,0.044,551
2019-07-29T02:33:27,42.805,6.029,CST-1368DR,8495,11882,15445,0.044,551
2019-07-29T02:36:29,42.805,6.029,CST-1368DR,8495,11881,15445,0.044,551
2019-07-29T02:39:30,42.805,6.029,CST-1368DR,8495,11883,15447,0.044,551
2019-07-29T02:42:32,42.805,6.029,CST-1368DR,8495,11883,15447,0.044,551
2019-07-29T02:45:34,42.805,6.029,CST-1368DR,8495,11882,15446,0.044,551
2019-07-29T02:48:35,42.805,6.029,CST-1368DR,8495,11882,15446,0.044,550
2019-07-29T02:51:37,42.805,6.029,CST-1368DR,8495,11882,15445,0.044,551
2019-07-29T02:54:39,42.805,6.029,CST-1368DR,8495,11882,15446,0.044,551
2019-07-29T02:57:40,42.805,6.029,CST-1368DR,8495,11882,15446,0.044,551
2019-07-29T03:00:42,42.805,6.029,CST-1368DR,8495,11882,15446,0.044,551
2019-07-29T03:03:44,42.805,6.029,CST-1368DR,8495,11882,15445,0.044,551
2019-07-29T03:06:45,42.805,6.029,CST-1368DR,8495,11882,15445,0.044,551
2019-07-29T03:09:47,42.805,6.029,CST-1368DR,8495,11882,15446,0.044,551
2019-07-29T03:12:49,42.805,6.029,CST-1368DR,8495,11880,15443,0.045,551
2019-07-29T03:15:50,42.805,6.029,CST-1368DR,8495,11882,15446,0.044,551
2019-07-29T03:18:52,42.805,6.029,CST-1368DR,8495,11880,15443,0.045,551
2019-07-29T03:21:54,42.805,6.029,CST-1368DR,8495,11882,15446,0.044,551
2019-07-29T03:24:55,42.805,6.029,CST-1368DR,8495,11882,15446,0.044,551
2019-07-29T03:27:57,42.805,6.029,CST-1368DR,8495,11882,15446,0.044,551
2019-07-29T03:30:59,42.805,6.029,CST-1368DR,8495,11883,15447,0.044,551
2019-07-29T03:34:00,42.805,6.029,CST-1368DR,8495,11882,15446,0.044,551
2019-07-29T03:37:02,42.805,6.029,CST-1368DR,8495,11882,15446,0.044,551
2019-07-29T03:40:03,42.805,6.029,CST-1368DR,8495,11881,15445,0.044,551
2019-07-29T03:43:05,42.805,6.029,CST-1368DR,8495,11882,15445,0.044,551
2019-07-29T03:46:07,42.805,6.029,CST-1368DR,8495,11882,15445,0.044,551
2019-07-29T03:49:08,42.805,6.029,CST-1368DR,8495,11882,15445,0.044,551
2019-07-29T03:52:10,42.805,6.029,CST-1368DR,8495,11880,15443,0.045,551
2019-07-29T03:55:12,42.805,6.029,CST-1368DR,8495,11882,15445,0.044,551
2019-07-29T03:58:13,42.805,6.029,CST-1368DR,8495,11881,15444,0.044,551
2019-07-29T04:01:15,42.805,6.029,CST-1368DR,8495,11881,15444,0.044,551
2019-07-29T04:04:17,42.805,6.029,CST-1368DR,8495,11881,15444,0.044,551
2019-07-29T04:07:18,42.805,6.029,CST-1368DR,8495,11880,15443,0.045,551
2019-07-29T04:10:20,42.805,6.029,CST-1368DR,8495,11881,15444,0.044,551
2019-07-29T04:13:21,42.805,6.029,CST-1368DR,8494,11881,15445,0.044,551
2019-07-29T04:16:23,42.805,6.029,CST-1368DR,8494,11881,15446,0.044,551
2019-07-29T04:19:25,42.805,6.029,CST-1368DR,8494,11880,15445,0.044,551
2019-07-29T04:22:27,42.805,6.029,CST-1368DR,8495,11881,15444,0.044,551
2019-07-29T04:25:28,42.805,6.029,CST-1368DR,8494,11881,15446,0.044,551
2019-07-29T04:28:30,42.805,6.029,CST-1368DR,8494,11881,15446,0.044,551
2019-07-29T04:31:31,42.805,6.029,CST-1368DR,8495,11882,15445,0.044,551
2019-07-29T04:34:33,42.805,6.029,CST-1368DR,8495,11882,15445,0.044,551
2019-07-29T04:37:35,42.805,6.029,CST-1368DR,8494,11878,15442,0.045,551
2019-07-29T04:40:36,42.805,6.029,CST-1368DR,8494,11881,15446,0.044,551
2019-07-29T04:43:38,42.805,6.029,CST-1368DR,8494,11879,15443,0.045,551
2019-07-29T04:46:40,42.805,6.029,CST-1368DR,8494,11881,15446,0.044,551
2019-07-29T04:49:41,42.805,6.029,CST-1368DR,8494,11880,15445,0.044,551
2019-07-29T04:52:43,42.805,6.029,CST-1368DR,8494,11878,15442,0.045,551
2019-07-29T04:55:44,42.805,6.029,CST-1368DR,8494,11882,15447,0.044,551
2019-07-29T04:58:46,42.805,6.029,CST-1368DR,8494,11881,15446,0.044,551
2019-07-29T05:01:48,42.805,6.029,CST-1368DR,8494,11881,15445,0.044,551
2019-07-29T05:04:49,42.805,6.029,CST-1368DR,8494,11881,15446,0.044,551
2019-07-29T05:07:51,42.805,6.029,CST-1368DR,8494,11880,15445,0.044,551
2019-07-29T05:10:53,42.805,6.029,CST-1368DR,8494,11881,15445,0.044,551
2019-07-29T05:13:54,42.805,6.029,CST-1368DR,8494,11882,15447,0.044,550
2019-07-29T05:16:56,42.805,6.029,CST-1368DR,8494,11880,15444,0.044,550
2019-07-29T05:19:58,42.805,6.029,CST-1368DR,8494,11880,15445,0.044,551
2019-07-29T05:22:59,42.805,6.029,CST-1368DR,8494,11878,15442,0.045,551
2019-07-29T05:26:01,42.805,6.029,CST-1368DR,8494,11878,15442,0.045,551
2019-07-29T05:29:03,42.805,6.029,CST-1368DR,8494,11880,15445,0.044,551
2019-07-29T05:32:04,42.805,6.029,CST-1368DR,8494,11880,15444,0.044,550
2019-07-29T05:35:06,42.805,6.029,CST-1368DR,8494,11881,15446,0.044,551
2019-07-29T05:38:08,42.805,6.029,CST-1368DR,8494,11880,15444,0.044,551
2019-07-29T05:41:09,42.805,6.029,CST-1368DR,8494,11880,15444,0.044,551
2019-07-29T05:44:11,42.805,6.029,CST-1368DR,8494,11880,15444,0.044,551
2019-07-29T05:47:12,42.805,6.029,CST-1368DR,8494,11881,15446,0.044,551
2019-07-29T05:50:14,42.805,6.029,CST-1368DR,8494,11879,15443,0.045,551
2019-07-29T05:53:16,42.805,6.029,CST-1368DR,8494,11880,15445,0.044,551
2019-07-29T05:56:17,42.805,6.029,CST-1368DR,8494,11880,15444,0.044,551
2019-07-29T05:59:19,42.805,6.029,CST-1368DR,8494,11881,15445,0.044,550
2019-07-29T06:02:21,42.805,6.029,CST-1368DR,8494,11881,15446,0.044,551
2019-07-29T06:05:22,42.805,6.029,CST-1368DR,8494,11881,15446,0.044,550
2019-07-29T06:08:24,42.805,6.029,CST-1368DR,8494,11879,15443,0.045,551
2019-07-29T06:11:25,42.805,6.029,CST-1368DR,8494,11880,15445,0.044,551
2019-07-29T06:14:27,42.805,6.029,CST-1368DR,8494,11881,15446,0.044,551
2019-07-29T06:17:29,42.805,6.029,CST-1368DR,8494,11882,15447,0.044,551
2019-07-29T06:25:07,42.805,6.029,CST-1368DR,8494,11877,15441,0.045,551
2019-07-29T06:28:08,42.805,6.029,CST-1368DR,8494,11882,15447,0.044,551
2019-07-29T06:31:10,42.805,6.029,CST-1368DR,8494,11879,15443,0.045,551
2019-07-29T06:34:12,42.805,6.029,CST-1368DR,8494,11875,15438,0.046,551
2019-07-29T06:37:13,42.805,6.029,CST-1368DR,8493,11878,15443,0.045,551
2019-07-29T06:40:15,42.805,6.029,CST-1368DR,8494,11880,15445,0.044,551
2019-07-29T06:43:16,42.805,6.029,CST-1368DR,8494,11881,15446,0.044,551
2019-07-29T06:46:18,42.805,6.029,CST-1368DR,8493,11879,15445,0.044,551
2019-07-29T06:49:20,42.805,6.029,CST-1368DR,8494,11880,15444,0.044,551
2019-07-29T06:52:21,42.805,6.029,CST-1368DR,8494,11879,15443,0.045,551
2019-07-29T06:55:23,42.805,6.029,CST-1368DR,8493,11880,15447,0.044,550
2019-07-29T06:58:25,42.805,6.029,CST-1368DR,8493,11881,15448,0.043,551
2019-07-29T07:01:26,42.805,6.029,CST-1368DR,8493,11881,15448,0.043,551
2019-07-29T07:04:28,42.805,6.029,CST-1368DR,8493,11880,15446,0.044,551
2019-07-29T07:07:30,42.805,6.029,CST-1368DR,8494,11880,15444,0.044,551
2019-07-29T07:10:31,42.805,6.029,CST-1368DR,8493,11877,15443,0.045,551
2019-07-29T07:13:33,42.805,6.029,CST-1368DR,8493,11881,15448,0.043,551
2019-07-29T07:16:34,42.805,6.029,CST-1368DR,8493,11881,15448,0.043,551
2019-07-29T07:19:36,42.805,6.029,CST-1368DR,8493,11880,15446,0.044,551
2019-07-29T07:22:38,42.805,6.029,CST-1368DR,8493,11880,15446,0.044,551
2019-07-29T07:25:39,42.805,6.029,CST-1368DR,8493,11879,15445,0.044,551
2019-07-29T07:28:41,42.805,6.029,CST-1368DR,8493,11882,15448,0.043,551
2019-07-29T07:31:43,42.805,6.029,CST-1368DR,8493,11881,15447,0.044,550
2019-07-29T07:34:44,42.805,6.029,CST-1368DR,8493,11878,15444,0.044,551
2019-07-29T07:37:46,42.805,6.029,CST-1368DR,8493,11881,15447,0.044,551
2019-07-29T07:40:48,42.805,6.029,CST-1368DR,8493,11880,15446,0.044,551
2019-07-29T07:43:49,42.805,6.029,CST-1368DR,8493,11880,15446,0.044,551
2019-07-29T07:46:51,42.805,6.029,CST-1368DR,8493,11878,15444,0.044,551
2019-07-29T07:49:53,42.805,6.029,CST-1368DR,8493,11879,15444,0.044,551
2019-07-29T07:52:54,42.805,6.029,CST-1368DR,8493,11877,15443,0.045,551
2019-07-29T07:55:56,42.805,6.029,CST-1368DR,8493,11880,15446,0.044,551
2019-07-29T07:58:58,42.805,6.029,CST-1368DR,8493,11880,15447,0.044,551
2019-07-29T08:01:59,42.805,6.029,CST-1368DR,8493,11878,15444,0.044,551
2019-07-29T08:05:01,42.805,6.029,CST-1368DR,8493,11879,15445,0.044,551
2019-07-29T08:08:02,42.805,6.029,CST-1368DR,8493,11880,15446,0.044,551
2019-07-29T08:11:04,42.805,6.029,CST-1368DR,8493,11877,15442,0.045,551
2019-07-29T08:14:06,42.805,6.029,CST-1368DR,8493,11881,15447,0.044,550
2019-07-29T08:17:07,42.805,6.029,CST-1368DR,8493,11880,15446,0.044,551
2019-07-29T08:20:09,42.805,6.029,CST-1368DR,8493,11879,15444,0.044,551
2019-07-29T08:23:11,42.805,6.029,CST-1368DR,8493,11878,15444,0.044,551
2019-07-29T08:26:13,42.805,6.029,CST-1368DR,8493,11880,15447,0.044,551
2019-07-29T08:29:14,42.805,6.029,CST-1368DR,8493,11880,15446,0.044,551
2019-07-29T08:32:16,42.805,6.029,CST-1368DR,8493,11878,15444,0.044,551
2019-07-29T08:35:18,42.805,6.029,CST-1368DR,8493,11879,15445,0.044,551
2019-07-29T08:38:19,42.805,6.029,CST-1368DR,8493,11880,15446,0.044,551
2019-07-29T08:41:21,42.805,6.029,CST-1368DR,8492,11879,15446,0.044,551
2019-07-29T08:44:22,42.805,6.029,CST-1368DR,8492,11876,15442,0.045,551
2019-07-29T08:47:24,42.805,6.029,CST-1368DR,8493,11879,15445,0.044,551
2019-07-29T08:50:26,42.805,6.029,CST-1368DR,8492,11879,15447,0.044,551
2019-07-29T08:53:27,42.805,6.029,CST-1368DR,8492,11879,15446,0.044,551
2019-07-29T08:56:29,42.805,6.029,CST-1368DR,8492,11879,15446,0.044,551
2019-07-29T08:59:31,42.805,6.029,CST-1368DR,8492,11880,15447,0.044,550
2019-07-29T09:02:32,42.805,6.029,CST-1368DR,8493,11879,15445,0.044,551
2019-07-29T09:05:34,42.805,6.029,CST-1368DR,8492,11858,15420,0.051,551
2019-07-29T09:08:36,42.805,6.029,CST-1368DR,8493,11879,15445,0.044,551
2019-07-29T09:11:37,42.805,6.029,CST-1368DR,8492,11879,15446,0.044,551
2019-07-29T09:14:39,42.805,6.029,CST-1368DR,8492,11878,15445,0.044,551
2019-07-29T09:17:41,42.805,6.029,CST-1368DR,8492,11878,15445,0.044,551
2019-07-29T09:20:42,42.805,6.029,CST-1368DR,8492,11881,15449,0.043,551
2019-07-29T09:23:44,42.805,6.029,CST-1368DR,8492,11877,15444,0.044,551
2019-07-29T09:26:45,42.805,6.029,CST-1368DR,8492,11880,15447,0.044,550
2019-07-29T09:29:47,42.805,6.029,CST-1368DR,8492,11878,15445,0.044,551
2019-07-29T09:32:49,42.805,6.029,CST-1368DR,8492,11877,15444,0.044,551
2019-07-29T09:35:50,42.805,6.029,CST-1368DR,8492,11875,15441,0.045,551
2019-07-29T09:38:52,42.805,6.029,CST-1368DR,8492,11878,15446,0.044,550
2019-07-29T09:41:54,42.805,6.029,CST-1368DR,8492,11879,15446,0.044,551
2019-07-29T09:44:55,42.805,6.029,CST-1368DR,8492,11878,15445,0.044,551
2019-07-29T09:47:57,42.805,6.029,CST-1368DR,8492,11879,15446,0.044,551
2019-07-29T09:50:59,42.805,6.029,CST-1368DR,8492,11877,15444,0.044,551
2019-07-29T09:54:01,42.805,6.029,CST-1368DR,8492,11878,15445,0.044,551
2019-07-29T09:57:02,42.805,6.029,CST-1368DR,8492,11879,15446,0.044,551
2019-07-29T10:00:04,42.805,6.029,CST-1368DR,8492,11879,15446,0.044,551
2019-07-29T10:03:05,42.805,6.029,CST-1368DR,8492,11877,15444,0.044,551
2019-07-29T10:06:07,42.805,6.029,CST-1368DR,8492,11877,15445,0.044,551
2019-07-29T10:09:09,42.805,6.029,CST-1368DR,8492,11878,15446,0.044,551
2019-07-29T10:12:10,42.805,6.029,CST-1368DR,8492,11879,15446,0.044,551
2019-07-29T10:15:12,42.805,6.029,CST-1368DR,8492,11877,15444,0.044,551
2019-07-29T10:18:14,42.805,6.029,CST-1368DR,8492,11875,15442,0.045,551
2019-07-29T10:21:15,42.805,6.029,CST-1368DR,8492,11878,15445,0.044,551
2019-07-29T10:24:17,42.805,6.029,CST-1368DR,8492,11877,15445,0.044,551
2019-07-29T10:27:18,42.805,6.029,CST-1368DR,8492,11878,15445,0.044,551
2019-07-29T10:30:20,42.805,6.029,CST-1368DR,8492,11879,15446,0.044,551
2019-07-29T10:33:22,42.805,6.029,CST-1368DR,8492,11878,15445,0.044,551
2019-07-29T10:36:23,42.805,6.029,CST-1368DR,8492,11877,15445,0.044,551
2019-07-29T10:39:25,42.805,6.029,CST-1368DR,8492,11877,15444,0.044,551
2019-07-29T10:42:27,42.805,6.029,CST-1368DR,8492,11878,15445,0.044,551
2019-07-29T10:45:28,42.805,6.029,CST-1368DR,8492,11878,15445,0.044,551
2019-07-29T10:48:30,42.805,6.029,CST-1368DR,8492,11877,15444,0.044,551
2019-07-29T10:51:32,42.805,6.029,CST-1368DR,8491,11877,15446,0.044,551
2019-07-29T10:54:33,42.805,6.029,CST-1368DR,8491,11877,15446,0.044,550
2019-07-29T10:57:35,42.805,6.029,CST-1368DR,8491,11876,15445,0.044,551
2019-07-29T11:00:37,42.805,6.029,CST-1368DR,8491,11878,15447,0.044,551
2019-07-29T11:03:38,42.805,6.029,CST-1368DR,8491,11877,15446,0.044,551
2019-07-29T11:06:40,42.805,6.029,CST-1368DR,8491,11878,15447,0.044,551
2019-07-29T11:09:42,42.805,6.029,CST-1368DR,8491,11878,15447,0.044,551
2019-07-29T11:12:44,42.805,6.029,CST-1368DR,8491,11878,15447,0.044,551
2019-07-29T11:15:46,42.805,6.029,CST-1368DR,8491,11877,15445,0.044,551
2019-07-29T11:18:47,42.805,6.029,CST-1368DR,8491,11877,15446,0.044,551
2019-07-29T11:21:49,42.805,6.029,CST-1368DR,8491,11877,15446,0.044,551
2019-07-29T11:24:50,42.805,6.029,CST-1368DR,8491,11877,15445,0.044,550
2019-07-29T11:27:52,42.805,6.029,CST-1368DR,8491,11877,15446,0.044,551
2019-07-29T11:30:54,42.805,6.029,CST-1368DR,8491,11877,15445,0.044,551
2019-07-29T11:33:55,42.805,6.029,CST-1368DR,8491,11877,15446,0.044,550
2019-07-29T11:36:57,42.805,6.029,CST-1368DR,8491,11877,15445,0.044,551
2019-07-29T11:39:59,42.805,6.029,CST-1368DR,8491,11876,15445,0.044,551
2019-07-29T11:43:01,42.805,6.029,CST-1368DR,8491,11876,15445,0.044,551
2019-07-29T11:46:02,42.805,6.029,CST-1368DR,8491,11877,15445,0.044,551
2019-07-29T11:49:04,42.805,6.029,CST-1368DR,8491,11875,15444,0.044,551
2019-07-29T11:52:06,42.805,6.029,CST-1368DR,8491,11877,15445,0.044,551
2019-07-29T11:55:07,42.805,6.029,CST-1368DR,8491,11877,15446,0.044,550
2019-07-29T11:58:09,42.805,6.029,CST-1368DR,8491,11877,15446,0.044,551
2019-07-29T12:01:11,42.805,6.029,CST-1368DR,8491,11875,15444,0.044,551
2019-07-29T12:04:12,42.805,6.029,CST-1368DR,8491,11877,15446,0.044,551
2019-07-29T12:07:14,42.805,6.029,CST-1368DR,8491,11877,15446,0.044,551
2019-07-29T12:10:15,42.805,6.029,CST-1368DR,8491,11875,15444,0.044,550
2019-07-29T12:13:17,42.805,6.029,CST-1368DR,8491,11876,15444,0.044,551
2019-07-29T12:16:19,42.805,6.029,CST-1368DR,8491,11875,15443,0.045,551
2019-07-29T12:19:20,42.805,6.029,CST-1368DR,8491,11875,15443,0.045,551
2019-07-29T12:22:22,42.805,6.029,CST-1368DR,8491,11865,15430,0.048,551
2019-07-29T12:25:24,42.805,6.029,CST-1368DR,8491,11876,15445,0.044,551
2019-07-29T12:28:25,42.805,6.029,CST-1368DR,8491,11875,15443,0.045,551
2019-07-29T12:31:27,42.805,6.029,CST-1368DR,8491,11874,15442,0.045,551
2019-07-29T12:34:29,42.805,6.029,CST-1368DR,8491,11876,15444,0.044,551
2019-07-29T12:37:30,42.805,6.029,CST-1368DR,8491,11872,15440,0.045,551
2019-07-29T12:40:32,42.805,6.029,CST-1368DR,8491,11877,15445,0.044,551
2019-07-29T12:43:34,42.805,6.029,CST-1368DR,8491,11876,15445,0.044,551
2019-07-29T12:46:35,42.805,6.029,CST-1368DR,8491,11875,15443,0.045,551
2019-07-29T12:49:37,42.805,6.029,CST-1368DR,8490,11876,15446,0.044,551
2019-07-29T12:52:39,42.805,6.029,CST-1368DR,8490,11875,15445,0.044,550
2019-07-29T12:55:40,42.805,6.029,CST-1368DR,8490,11875,15444,0.044,551
2019-07-29T12:58:42,42.805,6.029,CST-1368DR,8490,11875,15445,0.044,551
2019-07-29T13:01:44,42.805,6.029,CST-1368DR,8490,11876,15446,0.044,551
2019-07-29T13:04:45,42.805,6.029,CST-1368DR,8490,11874,15444,0.044,551
2019-07-29T13:07:47,42.805,6.029,CST-1368DR,8490,11876,15446,0.044,551
2019-07-29T13:10:49,42.805,6.029,CST-1368DR,8490,11876,15446,0.044,551
2019-07-29T13:13:50,42.805,6.029,CST-1368DR,8490,11874,15443,0.045,551
2019-07-29T13:16:52,42.805,6.029,CST-1368DR,8490,11875,15444,0.044,550
2019-07-29T13:19:53,42.805,6.029,CST-1368DR,8490,11876,15446,0.044,551
2019-07-29T13:22:55,42.805,6.029,CST-1368DR,8490,11875,15445,0.044,551
2019-07-29T13:25:57,42.805,6.029,CST-1368DR,8490,11875,15445,0.044,550
2019-07-29T13:28:58,42.805,6.029,CST-1368DR,8490,11875,15444,0.044,551
2019-07-29T13:32:00,42.805,6.029,CST-1368DR,8490,11875,15445,0.044,550
2019-07-29T13:35:02,42.805,6.029,CST-1368DR,8490,11875,15445,0.044,551
2019-07-29T13:38:03,42.805,6.029,CST-1368DR,8490,11874,15444,0.044,550
2019-07-29T13:41:05,42.805,6.029,CST-1368DR,8490,11873,15442,0.045,551
2019-07-29T13:44:07,42.805,6.029,CST-1368DR,8490,11875,15445,0.044,551
2019-07-29T13:47:08,42.805,6.029,CST-1368DR,8490,11872,15441,0.045,551
2019-07-29T13:50:10,42.805,6.029,CST-1368DR,8490,11875,15444,0.044,551
2019-07-29T13:53:11,42.805,6.029,CST-1368DR,8490,11872,15440,0.045,551
2019-07-29T13:56:13,42.805,6.029,CST-1368DR,8490,11872,15441,0.045,551
2019-07-29T13:59:15,42.805,6.029,CST-1368DR,8490,11875,15444,0.044,551
2019-07-29T14:02:16,42.805,6.029,CST-1368DR,8490,11874,15443,0.045,551
2019-07-29T14:05:18,42.805,6.029,CST-1368DR,8490,11875,15445,0.044,551
2019-07-29T14:08:20,42.805,6.029,CST-1368DR,8490,11874,15443,0.045,551
2019-07-29T14:11:21,42.805,6.029,CST-1368DR,8490,11873,15442,0.045,551
2019-07-29T14:14:23,42.805,6.029,CST-1368DR,8490,11873,15442,0.045,551
2019-07-29T14:17:25,42.805,6.029,CST-1368DR,8490,11873,15442,0.045,551
2019-07-29T14:20:26,42.805,6.029,CST-1368DR,8490,11870,15438,0.046,551
2019-07-29T14:23:28,42.805,6.029,CST-1368DR,8490,11873,15442,0.045,551
2019-07-29T14:26:30,42.805,6.029,CST-1368DR,8490,11872,15441,0.045,551
2019-07-29T14:29:31,42.805,6.029,CST-1368DR,8490,11872,15440,0.045,551
2019-07-29T14:32:33,42.805,6.029,CST-1368DR,8490,11873,15442,0.045,551
2019-07-29T14:35:35,42.805,6.029,CST-1368DR,8490,11872,15441,0.045,551
2019-07-29T14:38:36,42.805,6.029,CST-1368DR,8489,11873,15444,0.044,551
2019-07-29T14:41:38,42.805,6.029,CST-1368DR,8489,11874,15446,0.044,551
2019-07-29T14:44:40,42.805,6.029,CST-1368DR,8490,11873,15442,0.045,550
2019-07-29T14:47:41,42.805,6.029,CST-1368DR,8490,11873,15443,0.045,551
2019-07-29T14:50:43,42.805,6.029,CST-1368DR,8489,11873,15444,0.044,551
2019-07-29T14:53:45,42.805,6.029,CST-1368DR,8489,11873,15444,0.044,551
2019-07-29T14:56:46,42.805,6.029,CST-1368DR,8489,11873,15444,0.044,551
2019-07-29T14:59:48,42.805,6.029,CST-1368DR,8489,11872,15443,0.045,551
2019-07-29T15:02:49,42.805,6.029,CST-1368DR,8489,11874,15445,0.044,551
2019-07-29T15:05:51,42.805,6.029,CST-1368DR,8489,11872,15443,0.045,551
2019-07-29T15:08:53,42.805,6.029,CST-1368DR,8489,11873,15444,0.044,551
2019-07-29T15:11:54,42.805,6.029,CST-1368DR,8489,11872,15443,0.045,551
2019-07-29T15:14:56,42.805,6.029,CST-1368DR,8489,11872,15442,0.045,551
2019-07-29T15:17:58,42.805,6.029,CST-1368DR,8489,11872,15442,0.045,551
2019-07-29T15:20:59,42.805,6.029,CST-1368DR,8489,11871,15441,0.045,551
2019-07-29T15:24:01,42.805,6.029,CST-1368DR,8489,11872,15442,0.045,551
2019-07-29T15:27:03,42.805,6.029,CST-1368DR,8489,11872,15443,0.045,551
2019-07-29T15:30:04,42.805,6.029,CST-1368DR,8489,11872,15443,0.045,551
2019-07-29T15:33:06,42.805,6.029,CST-1368DR,8489,11873,15444,0.044,551
2019-07-29T15:36:08,42.805,6.029,CST-1368DR,8489,11871,15441,0.045,551
2019-07-29T15:39:09,42.805,6.029,CST-1368DR,8489,11872,15443,0.045,551
2019-07-29T15:42:11,42.805,6.029,CST-1368DR,8489,11872,15443,0.045,551
2019-07-29T15:45:13,42.805,6.029,CST-1368DR,8489,11867,15436,0.046,551
2019-07-29T15:48:14,42.805,6.029,CST-1368DR,8489,11872,15442,0.045,551
2019-07-29T15:51:16,42.805,6.029,CST-1368DR,8489,11872,15442,0.045,551
2019-07-29T15:54:18,42.805,6.029,CST-1368DR,8489,11872,15443,0.045,551
2019-07-29T15:57:19,42.805,6.029,CST-1368DR,8489,11870,15440,0.045,551
2019-07-29T16:00:21,42.805,6.029,CST-1368DR,8489,11872,15442,0.045,551
2019-07-29T16:03:23,42.805,6.029,CST-1368DR,8489,11871,15442,0.045,551
2019-07-29T16:06:24,42.805,6.029,CST-1368DR,8489,11872,15442,0.045,551
2019-07-29T16:09:26,42.805,6.029,CST-1368DR,8489,11872,15442,0.045,550
2019-07-29T16:12:28,42.805,6.029,CST-1368DR,8489,11871,15441,0.045,551
2019-07-29T16:15:29,42.805,6.029,CST-1368DR,8489,11870,15440,0.045,551
2019-07-29T16:18:31,42.805,6.029,CST-1368DR,8489,11871,15441,0.045,551
2019-07-29T16:21:33,42.805,6.029,CST-1368DR,8489,11871,15442,0.045,551
2019-07-29T16:24:34,42.805,6.029,CST-1368DR,8489,11871,15441,0.045,551
2019-07-29T16:27:36,42.805,6.029,CST-1368DR,8489,11871,15442,0.045,550
2019-07-29T16:30:38,42.805,6.029,CST-1368DR,8489,11871,15441,0.045,551
2019-07-29T16:33:39,42.805,6.029,CST-1368DR,8489,11871,15441,0.045,551
2019-07-29T16:36:41,42.805,6.029,CST-1368DR,8489,11870,15440,0.045,550
2019-07-29T16:39:43,42.805,6.029,CST-1368DR,8488,11855,15422,0.050,551
2019-07-29T16:42:44,42.805,6.029,CST-1368DR,8488,11870,15442,0.045,551